Theta_e
287 283 278 278 280 282 280 278 277 281 285 284 282 283 285 288 288 288 289 289 289 288 292 294 294 294 295 298 302 307 316 322 323 324 326 328 327 328 329 331 332 331 330 328
275 276 283 285 286 284 282 279 279 282 286 284 282 282 286 287 288 288 289 289 290 289 291 293 294 293 294 295 297 302 310 319 323 324 326 326 328 329 330 330 330 331 330 328
279 281 286 284 283 281 280 279 279 279 283 285 283 279 282 287 288 289 290 291 289 289 290 291 293 293 292 293 294 299 315 316 320 325 328 327 328 328 327 328 327 328 328 327
281 285 284 282 280 283 277 284 284 282 280 275 283 271 279 284 284 287 288 289 290 290 291 292 292 292 293 294 304 308 310 312 317 323 325 326 324 323 325 327 327 326 326 325
278 281 281 279 281 285 281 285 283 282 279 279 278 276 275 282 280 281 284 285 286 288 289 290 291 292 293 302 302 304 308 308 312 317 324 323 324 324 325 325 325 325 325 326
281 287 284 283 287 285 286 280 280 281 279 270 272 272 270 275 278 280 283 285 287 288 289 289 291 294 298 298 298 301 304 306 309 313 319 324 323 323 323 323 323 323 324 324
275 276 285 288 281 285 282 272 265 267 266 265 274 274 271 278 281 281 282 284 286 287 288 287 291 294 296 296 297 300 302 306 306 308 311 309 323 324 323 322 322 322 322 322
262 267 272 284 282 279 277 277 271 265 268 269 275 271 273 280 283 282 284 286 289 287 289 290 292 294 293 295 299 300 301 301 302 302 302 304 307 311 311 310 316 319 321 321
268 268 281 284 287 283 276 274 280 274 268 269 267 272 281 279 280 280 282 286 287 289 290 290 292 292 293 294 295 296 297 297 297 298 298 299 299 300 301 301 301 301 301 304
275 271 274 279 285 283 277 281 271 272 265 263 269 269 268 272 275 278 279 281 285 288 288 289 290 291 292 293 294 295 294 294 294 295 295 295 295 296 296 295 296 295 296 298
278 275 273 280 277 276 276 274 275 278 275 268 267 267 275 274 277 277 278 281 282 283 285 287 289 290 290 291 292 292 293 292 292 293 293 293 293 292 293 292 293 293 294 294
280 278 273 274 282 283 280 276 275 272 269 271 271 268 277 277 278 279 278 279 281 282 283 284 286 287 287 288 289 289 290 290 290 291 291 291 292 291 290 290 291 291 291 291
280 272 269 273 277 281 276 278 278 277 277 269 266 267 278 277 277 278 277 278 279 280 281 282 283 284 285 285 286 286 287 288 289 289 289 289 289 289 289 289 289 290 290 290
283 278 276 271 275 279 274 275 276 275 269 271 270 270 273 274 275 276 277 279 279 279 280 281 281 283 284 284 285 285 285 286 286 287 287 286 287 287 287 288 288 288 289 288
276 263 274 275 275 281 278 274 274 274 275 270 272 271 273 274 275 276 278 278 278 279 279 280 280 282 283 283 284 285 285 285 285 285 285 284 285 286 286 286 286 286 286 286
278 263 270 267 278 280 276 276 275 275 276 274 277 273 277 277 277 276 277 277 277 278 279 280 281 281 281 282 283 283 283 284 285 284 283 284 284 284 284 284 284 284 284 284
272 264 262 265 273 275 269 275 273 275 277 276 273 277 278 276 276 276 277 277 277 278 279 280 280 281 281 282 283 282 283 284 284 283 283 283 283 282 282 282 283 282 282 283
267 262 263 263 265 263 273 279 277 273 277 278 278 278 280 278 279 279 279 278 278 278 278 279 281 281 282 282 282 282 283 282 282 282 282 282 282 281 281 281 281 281 282 281
277 266 261 268 258 269 274 274 274 273 275 278 277 278 280 282 283 279 280 280 279 280 280 280 281 282 281 281 282 281 281 281 281 280 281 281 281 281 280 280 279 280 280 280
275 273 266 260 259 260 273 275 276 276 270 279 278 277 277 280 274 275 278 279 279 280 280 279 280 280 280 280 281 280 279 280 279 279 280 280 281 280 279 279 279 280 280 280
256 256 261 257 259 265 274 276 277 266 271 278 278 278 277 275 276 277 278 278 278 278 280 279 279 278 278 280 280 278 278 277 279 279 279 279 280 279 279 279 279 279 279 279
264 261 259 257 257 262 274 276 273 276 278 278 277 276 276 277 277 277 277 276 276 276 276 277 276 275 275 276 278 276 275 276 277 277 277 276 277 279 279 277 278 278 277 277
265 268 265 269 269 275 275 275 277 278 279 278 277 277 277 276 274 274 273 273 273 273 274 274 273 273 272 272 272 271 270 273 274 274 273 274 275 278 278 277 277 276 275 275
269 269 267 268 270 272 276 276 277 278 278 278 278 277 276 274 273 272 272 271 270 269 269 268 268 268 267 267 268 266 268 269 270 272 273 273 273 274 274 276 276 275 275 275
270 270 266 268 269 268 270 274 276 276 274 273 272 273 274 275 274 273 271 270 269 267 267 264 265 265 264 264 264 264 265 267 269 270 271 272 273 272 273 274 272 274 274 275
270 270 270 270 274 274 274 274 272 271 270 269 270 270 269 272 273 271 268 267 266 266 266 265 265 264 264 264 263 263 264 266 267 269 270 270 270 270 272 271 273 281 282 283
Wind_Speed
3 4 12 11 10 15 16 18 22 25 22 21 22 25 24 17 14 19 18 16 13 9 8 8 7 7 5 3 5 6 5 7 4 4 5 8 9 7 7 6 11 12 10 10
6 10 14 9 11 15 16 21 24 21 19 14 18 25 21 20 17 20 19 17 17 9 9 8 9 8 6 4 6 7 6 6 6 5 5 3 8 8 11 8 7 10 12 11
7 13 15 12 12 15 18 15 18 23 22 18 22 25 24 21 21 20 20 18 11 9 8 8 11 10 8 7 8 7 3 4 4 8 6 5 6 5 6 8 6 7 10 11
8 7 4 15 13 15 15 8 12 15 14 7 4 12 2 8 9 7 12 11 15 15 13 9 11 8 8 8 5 4 1 3 5 6 8 12 10 9 7 7 9 8 9 10
9 14 15 13 10 10 12 18 15 21 18 14 8 7 7 8 10 16 13 10 9 10 11 11 10 9 6 6 4 3 3 2 5 7 10 9 7 7 7 7 11 10 7 7
15 11 6 6 12 15 20 12 21 11 6 4 4 7 5 6 12 17 19 15 10 8 10 11 10 8 7 5 2 1 2 2 3 6 7 10 15 8 8 10 9 9 8 8
9 7 6 3 8 7 12 8 6 5 2 6 2 2 3 15 17 14 17 22 20 10 11 8 9 8 6 5 4 4 4 0 3 4 2 6 14 12 13 11 9 9 7 8
2 12 3 6 7 10 11 3 3 6 4 8 4 3 1 18 14 16 17 18 15 4 6 7 9 9 7 7 6 3 2 3 4 4 4 5 7 5 4 6 2 2 3 4
5 9 5 8 6 9 9 7 14 5 4 3 2 5 1 22 18 18 19 20 3 9 11 10 11 11 7 6 6 5 3 5 6 6 4 7 7 9 5 7 6 4 5 5
5 8 4 8 5 6 5 8 6 3 5 5 4 5 10 22 22 18 18 16 12 10 12 11 11 9 6 6 6 6 6 7 6 7 6 7 8 8 7 7 9 8 6 7
4 4 10 6 7 16 13 9 6 5 6 6 6 1 11 19 18 15 13 12 12 13 12 11 10 8 7 7 7 7 7 7 7 8 7 9 9 9 10 11 9 7 8 6
4 4 7 4 4 13 10 11 9 4 5 4 6 2 15 16 14 12 11 12 12 13 12 11 9 9 9 8 7 9 8 8 8 7 8 11 10 10 11 10 9 8 9 8
3 3 6 10 6 5 5 17 16 6 1 10 5 7 12 15 15 12 12 12 11 13 14 13 11 10 8 8 10 9 9 9 9 9 9 11 12 11 11 10 10 10 10 11
3 3 0 3 6 5 11 19 17 10 4 6 8 13 17 18 16 15 15 13 13 15 14 13 12 9 9 10 11 9 10 10 10 11 13 14 12 12 10 10 12 11 10 11
4 2 4 10 9 2 10 14 17 14 13 4 7 11 16 16 16 16 16 16 17 19 18 15 12 9 12 13 13 10 13 14 13 16 14 13 11 11 11 11 12 11 12 12
4 3 3 6 4 7 6 15 15 9 13 5 8 9 10 12 15 19 18 18 18 16 15 14 12 13 14 13 13 14 15 13 12 14 14 11 12 11 12 10 12 12 13 13
2 2 4 6 5 4 6 12 9 6 15 7 9 5 9 16 17 18 16 17 16 15 14 14 15 13 11 14 13 14 13 12 15 16 12 11 11 12 12 10 12 13 12 10
1 2 1 5 5 6 7 0 4 2 11 15 12 14 5 5 8 13 15 14 15 14 14 13 11 12 12 12 14 13 13 13 14 14 13 10 10 11 10 11 13 12 9 11
5 3 3 3 2 4 5 4 4 3 5 10 8 11 11 9 3 15 17 14 12 11 10 9 10 10 13 14 12 13 13 13 12 11 10 8 8 11 10 11 10 8 9 10
1 2 4 4 6 3 4 1 0 2 4 7 8 9 8 10 10 7 14 12 12 12 11 11 12 11 15 12 10 14 13 12 12 11 10 9 8 9 9 7 7 5 6 7
4 4 3 1 1 7 3 5 2 7 4 3 4 5 8 6 2 4 6 9 8 9 11 10 11 12 12 10 10 13 11 12 9 8 7 9 9 8 7 5 5 5 5 6
4 4 3 3 5 4 0 1 2 4 1 3 2 2 4 4 4 4 5 8 10 11 10 10 10 12 12 13 10 10 12 9 6 5 6 6 5 5 5 5 5 5 5 5
3 7 5 7 7 3 2 2 2 3 5 2 3 2 3 2 3 4 4 6 7 7 8 8 7 7 9 10 10 9 8 8 6 6 7 6 6 6 5 5 5 3 4 4
4 3 2 5 4 4 4 3 3 3 5 5 3 2 4 4 1 3 4 5 5 5 7 5 7 9 10 9 10 7 8 8 5 6 6 5 6 6 5 4 3 4 4 4
5 5 4 5 5 4 5 5 6 4 3 3 2 3 4 5 2 3 2 3 4 5 5 4 6 6 7 6 8 8 9 9 8 6 7 7 5 5 5 4 2 3 1 3
7 9 7 8 8 6 6 9 6 8 6 5 5 1 1 4 5 4 3 3 3 5 5 5 6 6 6 7 8 10 10 8 7 5 5 4 4 4 4 4 4 9 9 9
Wind_Direction
345 278 268 247 223 252 270 267 267 270 273 276 270 268 271 268 255 259 261 267 268 241 230 223 237 251 246 259 285 275 269 215 165 175 210 210 191 184 180 176 185 189 180 178
359 253 266 263 279 273 270 275 275 277 275 264 276 269 263 260 254 246 246 243 248 242 235 217 221 228 241 239 270 283 272 259 199 193 200 195 175 198 192 188 181 189 187 179
257 263 306 298 300 294 278 266 273 274 293 273 268 272 263 258 249 249 254 250 228 223 235 224 216 210 224 235 248 261 221 296 290 212 184 175 168 187 179 181 184 190 185 176
283 276 279 314 297 290 287 253 292 288 295 304 121 292 80 259 237 254 258 262 240 238 238 210 223 203 208 234 188 165 256 354 324 272 186 211 198 196 201 180 186 185 183 174
274 304 307 304 274 290 270 292 279 275 273 289 240 258 282 341 18 346 332 328 331 289 243 205 208 205 190 153 185 195 156 346 316 306 237 211 211 182 161 169 183 180 197 195
261 269 265 233 290 295 290 298 285 271 248 246 302 175 312 22 337 326 329 324 314 304 310 239 199 159 137 123 102 37 346 300 317 297 274 229 206 160 165 188 185 178 186 199
326 299 289 258 313 296 329 340 311 1 345 222 283 178 273 7 351 331 318 310 301 295 296 235 150 126 110 80 53 25 330 307 10 310 302 39 232 185 181 183 190 172 175 201
44 333 359 306 316 321 314 287 288 313 312 286 179 251 197 13 342 333 322 303 283 305 8 108 99 103 91 71 48 38 1 50 38 45 25 38 360 38 98 78 66 186 205 202
352 284 324 327 330 5 326 315 295 260 248 260 207 343 81 353 346 338 343 343 103 102 81 68 76 73 72 78 59 54 57 59 57 62 45 67 51 48 46 80 77 71 39 6
277 291 222 286 356 311 285 297 332 295 312 296 3 62 329 343 343 347 342 353 1 60 59 61 61 64 65 61 68 70 67 63 59 68 68 71 66 74 71 54 64 56 43 35
253 183 296 3 359 360 360 1 347 287 22 326 325 63 357 346 335 337 338 356 9 44 41 53 53 51 59 58 60 60 58 65 68 68 76 76 68 62 59 58 52 49 55 40
274 299 292 252 17 26 11 359 10 352 3 315 287 342 19 344 340 341 352 8 22 39 42 43 43 45 47 44 50 58 52 60 58 68 87 81 79 72 71 66 61 57 61 53
315 305 310 340 337 357 7 10 5 342 292 31 350 313 352 351 358 2 9 20 31 40 41 39 36 35 38 53 53 49 46 54 59 58 70 78 70 70 68 67 63 60 64 58
316 275 357 277 299 338 357 2 1 5 26 336 10 330 350 359 0 9 16 27 39 45 42 41 30 34 42 50 53 55 49 48 51 61 56 57 53 58 60 64 65 59 55 63
86 194 309 270 251 205 5 9 356 5 1 21 351 10 359 359 355 12 22 23 34 41 35 36 25 31 44 48 51 58 52 45 44 49 51 48 52 55 62 65 69 67 64 58
9 272 356 292 281 205 351 5 4 356 358 341 355 41 0 2 14 17 22 23 31 29 32 31 30 44 43 41 52 50 52 49 57 55 50 48 52 51 50 53 66 67 64 63
34 49 31 284 349 65 15 356 337 326 9 343 7 17 35 25 24 18 14 22 26 28 28 28 31 35 42 45 50 54 53 54 54 57 42 38 54 53 49 43 55 58 59 62
300 67 148 260 12 34 235 62 236 191 24 11 5 0 15 88 53 31 21 21 25 26 28 26 33 35 41 47 52 57 52 52 57 54 49 40 52 61 58 58 54 54 55 57
203 103 330 73 121 278 324 20 341 16 7 17 359 0 360 347 310 35 17 22 30 32 33 34 33 41 45 42 38 55 49 50 51 51 52 47 42 61 57 58 54 45 57 59
321 90 121 23 108 175 249 315 231 177 16 8 5 11 352 352 52 3 351 5 19 25 30 29 30 37 44 29 40 54 46 45 42 31 27 31 32 53 63 60 64 56 60 67
348 355 152 358 165 291 251 294 185 75 243 35 14 6 15 61 49 319 344 5 20 26 26 27 37 38 28 18 39 51 43 32 17 26 28 35 31 42 41 39 41 58 73 76
183 124 237 68 56 309 176 32 170 160 64 117 84 27 51 66 64 39 17 23 26 24 25 29 44 39 25 18 30 38 35 357 3 23 46 36 28 38 40 46 37 36 54 69
316 183 195 167 214 234 219 133 178 150 140 171 128 130 121 86 7 359 27 25 19 30 26 16 32 50 40 30 26 40 357 345 352 26 32 22 23 33 29 45 39 40 36 57
261 169 197 47 287 232 176 155 169 170 148 151 152 155 140 143 168 18 20 14 18 7 22 7 32 38 28 15 25 23 1 349 13 41 29 21 31 20 14 23 36 55 45 40
196 117 190 270 275 321 272 224 179 164 133 132 106 145 150 127 123 146 126 33 17 11 16 21 39 40 29 10 21 8 359 356 16 24 20 17 18 16 14 21 51 59 351 106
186 185 165 220 199 162 206 191 158 152 181 191 151 132 37 136 144 132 80 40 40 31 4 27 30 34 10 15 15 5 358 0 4 20 15 7 10 15 18 22 13 34 58 65